STARLINK-1374 (45545 NORAD) Tracking and Keplerian Element Data

This shows tracking and keplerian element data for the satellite.

Feedback or suggestion? Click here.




ElementValue
Catalog45545
NameSTARLINK-1374
Epoch Orbit626
Epoch Day149.25001157
Epoch Year2020
RAAN226.5972
Inclination52.9992
Eccentricity0.0003264
Argument of Perigee93.6599
Mean Anonmoly349.5747
Mean Motion15.35285403
Decay Rate0.05231868
L11 45545U 20025Q 20149.25001157 .05231868 00000-0 13115+0 0 9992
L22 45545 52.9992 226.5972 0003264 93.6599 349.5747 15.35285403 6269

Live tracking and technical data element details for STARLINK-1374 (NORAD 45545). STARLINK-1374 can be tracked NOW for your location showing map with azimuth and elevation plus other details from your city location.

Track the satellite on the map from your city or location and see movement details for azimuth, elevation, latitude, longitude, range, height, and movement on the map or in text.







IsCatalogInMostPopularTable: catalog: 45545, numindb: 6
Update: records affected: 1



GetName: 45545 STARLINK-1374

Hit Count: updated at: Sat, 30 May 2020 14:56:03 GMT